DB0TV-13 Weather Reports


Display with metric or nautical units.
time (UTC)temp
F
wind
direction
speed
MPH
gust
MPH
rain 1hr
in
rain 24hr
in
rain mn
in
humidity
%
barometer
mb
20260506091019 47 68 1.0 4.0 0.02 0.64 0.38 98 1005.3
20260506090019 47 45 1.0 4.0 0.03 0.64 0.38 98 1005.1
20260506085019 47 68 1.0 4.0 0.04 0.64 0.38 98 1005.1
20260506084019 47 23 1.0 4.0 0.04 0.63 0.37 98 1004.9
20260506083019 47 90 1.0 3.0 0.03 0.62 0.36 98 1004.8
20260506082019 47 90 1.0 5.0 0.03 0.62 0.36 98 1004.8
20260506081019 47 68 2.0 5.0 0.02 0.61 0.35 98 1004.7
20260506073019 47 23 2.0 6.0 0.01 0.59 0.33 98 1004.7
20260506072019 47 45 2.0 5.0 0.02 0.59 0.33 98 1004.7
20260506071019 47 45 2.0 4.0 0.02 0.59 0.33 98 1004.6
20260506062019 47 68 2.0 4.0 0.02 0.57 0.31 98 1004.4
20260506061019 47 23 1.0 5.0 0.02 0.57 0.31 98 1004.4
20260506051019 47 45 2.0 5.0 0.02 0.56 0.30 98 1004.3
20260506045019 47 23 2.0 4.0 0.02 0.55 0.29 98 1004.3
20260506044018 47 68 2.0 5.0 0.02 0.54 0.28 98 1004.3
20260506043019 48 23 2.0 5.0 0.02 0.54 0.28 98 1004.3
20260506042019 48 45 2.0 5.0 0.02 0.54 0.28 98 1004.3
20260506041018 48 45 2.0 3.0 0.02 0.54 0.28 98 1004.4
20260506040018 48 23 2.0 7.0 0.02 0.53 0.27 98 1004.3
20260506035018 48 23 2.0 6.0 0.02 0.53 0.27 98 1004.4
20260506034019 48 45 1.0 4.0 0.03 0.54 0.27 98 1004.3
20260506033018 48 68 3.0 6.0 0.03 0.53 0.26 98 1004.4
20260506032018 49 45 2.0 5.0 0.03 0.53 0.26 98 1004.4
20260506031018 49 68 2.0 5.0 0.03 0.52 0.25 98 1004.5
20260506030019 49 68 2.0 6.0 0.02 0.51 0.24 98 1004.7
20260506025018 49 45 3.0 6.0 0.03 0.51 0.24 98 1004.8
20260506024018 49 68 2.0 5.0 0.03 0.50 0.24 98 1004.8
20260506023018 49 45 3.0 7.0 0.02 0.50 0.23 98 1004.9
20260506022018 49 23 2.0 5.0 0.03 0.50 0.23 98 1004.9
20260506021018 49 45 3.0 10.0 0.02 0.49 0.22 98 1004.9
20260506020018 49 68 3.0 9.0 0.03 0.49 0.22 98 1004.9
20260506015018 49 23 3.0 6.0 0.03 0.48 0.21 98 1004.8
20260506014018 49 45 3.0 6.0 0.03 0.47 0.20 98 1004.9
20260506013018 49 45 3.0 6.0 0.04 0.47 0.20 98 1005.0
20260506012018 49 0 3.0 6.0 0.04 0.46 0.20 98 1005.1
20260506011018 49 45 2.0 5.0 0.05 0.46 0.20 98 1005.1
20260506010018 49 45 1.0 4.0 0.05 0.46 0.19 98 1005.1
20260506005018 49 23 2.0 6.0 0.06 0.45 0.18 98 1005.2
20260506004020 49 68 2.0 6.0 0.06 0.44 0.17 98 1005.3
20260506003018 49 0 2.0 6.0 0.06 0.43 0.17 98 1005.3
20260506002018 49 23 1.0 4.0 0.06 0.43 0.16 98 1005.4
20260506001018 49 0 2.0 6.0 0.07 0.42 0.15 97 1005.6
20260506000020 49 45 2.0 5.0 0.08 0.41 0.14 97 1005.7
20260505235018 49 0 2.0 6.0 0.07 0.39 0.13 98 1005.9
20260505234018 49 45 2.0 4.0 0.07 0.39 0.12 97 1005.9
20260505233020 49 23 2.0 4.0 0.08 0.38 0.11 97 1006.1
20260505232020 49 23 3.0 8.0 0.07 0.36 0.09 97 1006.1
20260505231018 49 68 2.0 4.0 0.07 0.35 0.08 97 1006.1
20260505230018 49 45 2.0 4.0 0.06 0.33 0.06 97 1006.2
20260505225020 49 45 2.0 7.0 0.06 0.32 0.06 97 1006.2
20260505224018 49 45 3.0 7.0 0.06 0.31 0.05 97 1006.2
20260505223020 49 23 3.0 8.0 0.06 0.30 0.03 97 1006.4
20260505222018 49 23 3.0 7.0 0.06 0.29 0.02 97 1006.5
20260505221020 49 45 2.0 5.0 0.06 0.28 0.01 97 1006.4
20260505220020 49 23 2.0 7.0 0.06 0.27 0.27 97 1006.3
20260505215019 49 68 2.0 5.0 0.06 0.26 0.26 97 1006.4
20260505214018 49 68 2.0 7.0 0.07 0.25 0.25 97 1006.6
20260505213018 49 23 2.0 5.0 0.06 0.24 0.24 97 1006.6
20260505212018 49 23 2.0 5.0 0.07 0.23 0.23 97 1006.7
20260505211018 49 45 3.0 7.0 0.11 0.22 0.22 97 1006.8
20260505210019 49 45 2.0 6.0 0.13 0.21 0.21 97 1006.8
20260505205018 49 45 2.0 8.0 0.12 0.20 0.20 97 1006.7
20260505204019 49 45 3.0 8.0 0.10 0.18 0.18 97 1006.8
20260505203018 49 23 3.0 9.0 0.10 0.17 0.17 97 1006.9
20260505202018 49 23 3.0 10.0 0.09 0.16 0.16 97 1006.8
20260505201019 49 45 3.0 9.0 0.06 0.11 0.11 97 1006.7
20260505200018 49 45 3.0 7.0 0.03 0.09 0.09 97 1006.7
20260505195018 49 45 3.0 6.0 0.03 0.08 0.08 97 1006.7
20260505194018 49 45 3.0 10.0 0.04 0.09 0.08 97 1006.7
20260505193018 50 23 4.0 8.0 0.03 0.08 0.07 97 1006.8
20260505192018 50 45 3.0 8.0 0.03 0.07 0.06 97 1006.8
20260505191018 50 23 4.0 8.0 0.02 0.06 0.06 97 1006.8
20260505190018 50 45 2.0 5.0 0.02 0.06 0.06 97 1006.7
20260505185018 50 45 3.0 7.0 0.02 0.06 0.05 97 1006.7
20260505184018 50 45 3.0 10.0 0.02 0.05 0.04 97 1006.7
20260505183020 50 45 3.0 8.0 0.02 0.05 0.04 97 1006.7
20260505182018 50 45 3.0 5.0 0.01 0.04 0.03 97 1006.6
20260505181018 50 45 3.0 5.0 0.01 0.04 0.03 97 1006.7
20260505180018 50 45 3.0 5.0 0.01 0.04 0.03 97 1006.8
20260505175020 50 23 3.0 7.0 0.00 0.03 0.02 97 1006.8
20260505174018 50 23 3.0 6.0 0.00 0.04 0.02 96 1006.8
20260505173018 51 45 2.0 6.0 0.00 0.05 0.02 96 1006.9
20260505172020 51 68 3.0 7.0 0.00 0.05 0.02 96 1006.9
20260505171020 51 45 3.0 7.0 0.00 0.05 0.02 97 1007.1
20260505170018 51 45 4.0 9.0 0.00 0.06 0.02 96 1007.1
20260505165018 51 45 3.0 7.0 0.00 0.06 0.02 96 1007.0
20260505164020 51 45 3.0 8.0 0.00 0.06 0.02 96 1007.0
20260505163020 51 0 2.0 5.0 0.00 0.08 0.02 96 1007.2
20260505162018 51 23 4.0 11.0 0.00 0.15 0.02 96 1007.1
20260505161018 52 45 3.0 10.0 0.00 0.28 0.02 96 1007.1
20260505153020 52 45 2.0 7.0 0.00 0.30 0.02 96 1007.4
20260505152020 53 45 2.0 8.0 0.00 0.31 0.02 96 1007.6
20260505151020 53 45 2.0 5.0 0.00 0.31 0.02 96 1007.8
20260505125029 55 45 3.0 6.0 0.00 0.33 0.02 94 1008.4
20260505124019 55 23 2.0 5.0 0.00 0.33 0.02 93 1008.4
20260505123020 56 0 2.0 5.0 0.00 0.33 0.02 93 1008.4
20260505122020 56 45 2.0 4.0 0.00 0.33 0.02 93 1008.5
20260505121019 57 23 2.0 7.0 0.00 0.33 0.02 92 1008.4
20260505120019 57 45 3.0 6.0 0.01 0.33 0.02 92 1008.4
20260505115019 57 23 3.0 8.0 0.01 0.33 0.02 91 1008.4
20260505114020 58 338 3.0 8.0 0.01 0.33 0.02 89 1008.5
20260505113019 60 23 1.0 4.0 0.01 0.33 0.02 88 1008.6
20260505112019 59 90 1.0 3.0 0.01 0.33 0.02 88 1008.6
20260505111019 59 90 1.0 4.0 0.01 0.33 0.02 88 1008.6
20260505102019 57 0.0 2.0 0.01 0.32 0.02 93 1009.0
20260505101019 57 158 1.0 3.0 0.01 0.32 0.02 92 1009.2
20260505100019 57 0.0 2.0 0.01 0.32 0.02 92 1009.1
20260505095019 57 158 1.0 3.0 0.01 0.32 0.02 91 1009.2
20260505094019 57 135 1.0 3.0 0.00 0.31 0.01 91 1009.1
20260505093019 57 135 2.0 4.0 0.00 0.31 0.01 92 1009.1
20260505092019 57 158 1.0 3.0 0.00 0.31 0.01 92 1009.2